{"data":{"norad_id":49291,"epoch":"2026-05-24T23:40:57.104256Z","epoch_age_seconds":73206,"freshness":"FRESH","line1":"1 49291U 21090N   26144.98677204 -.00000051  00000+0 -16020-3 0  9996","line2":"2 49291  87.9161 309.5901 0001724  92.8479 267.2851 13.19726547223361","mean_motion":13.19726547,"eccentricity":0.0001724,"inclination_deg":87.9161,"raan_deg":309.5901,"arg_perigee_deg":92.8479,"mean_anomaly_deg":267.2851,"bstar":-0.0001602,"rev_number":22336,"period_min":109.11351319509,"perigee_km":1184.4606243489,"apogee_km":1187.0686576347,"semimajor_km":7563.9016409918,"source":"CELESTRAK","updated_at":"2026-05-25T13:38:22.521677Z"}}